View from above orbital plane
|
View from above satellite
|
Ground track
|
The orbit data is extracted from the following two-line orbital elements,
1 20465U 90010A 21018.86227017 .00000284 00000-0 21642-4 0 9995
2 20465 82.4881 66.0606 0015182 189.1026 170.9925 14.98123931660576
Epoch (UTC): | 18 January 2021 20:41:40 |
Eccentricity: | 0.0015182 |
inclination: | 82.4881° |
perigee height: | 562 km |
apogee height: | 583 km |
right ascension of ascending node: | 66.0606° |
argument of perigee: | 189.1026° |
revolutions per day: | 14.98123931 |
mean anomaly at epoch: | 170.9925° |
orbit number at epoch: | 66057 |
The dashed part of the orbit path shows where the satellite is in the earth's shadow,
|
|